Погода в Нижней Омре

Россия / Республика Коми     62°45′17″N   55°49′45″E
темп.,
°C
ветер,
м/с
пор.,
м/с
влажн.,
%
обл.,
%
осадки,
мм/ч
давл.,
гПа
погр.,
м
9 мая, вс
вс900:00+6всв248013 0.0 101975
03:00+5в22815 0.0 102045
06:00+9вюв38655 0.0 1019287
09:00+15ююв475848 0.0 10181017
12:00+19ю5844100 0.0 10172060
15:00+20ю4939100 0.0 10162401
18:00+17ююв31052100 0.0 1016391
21:00+12ююв3117548 0.0 1017233
10 мая, пн
пн1000:00+11ююв3137998 0.0 1018304
03:00+10ююв4138022 0.0 1018318
06:00+14ю4136354 0.0 1018437
09:00+19ю6134586 0.0 10181754
12:00+20юз61042100 0.0 10182605
15:00+13з51284100 0.6 1021905
18:00+7ссз3791100 4.2 1024559
21:00+6с3791100 6.6 1026556
11 мая, вт
вт1100:00+5ссз26909 0.4 1027366
03:00+2ссз279522 0.4 1028187
06:00+6ссз127267 0.0 1028347
09:00+10з235180 0.0 1028921
12:00+11з4646100 0.0 10281085
15:00+9зюз41063100 0.0 1028743
18:00+9зюз31169100 0.0 1028628
21:00+8з31185100 0.5 1028495
12 мая, ср
ср1200:00+8зюз2888100 0.1 1028260
03:00+7з279297 0.1 1028227
06:00+9з248788 0.0 1028200
09:00+16зюз366692 0.0 1027826
12:00+19зюз4956100 0.0 10251509
15:00+21зсз41046100 0.0 10251783
18:00+18зсз495483 0.0 1025561
21:00+14з3107391 0.0 1026226
13 мая, чт
чт1300:00+14зсз398099 0.0 1026218
03:00+13сз2789100 0.1 1028238
06:00+14с357622 0.0 1029615
09:00+17с23606 0.0 1029956
12:00+20ссз244811 0.0 10291412
15:00+20ссз134762 0.0 10271143
18:00+20юв125520 0.0 102652
21:00+15юв267297 0.0 1026140